DateTimeUTC,F1_A11,F1_S11,BsB_S11,BsG_S11,BsR_S11,BbsB_S11,BbsG_S11,BbsR_S11,BaB_A11,BaG_A11,BaR_A11,Tu_S11,T_S11,Uu_S11,U_S11,P_S11,T1_A11
2021-06-30T08:00:00Z,00000200,20000000,,,,,,,0000.26,0000.12,0000.25,17.5,24.3,04.3,02.8,0659.1,31.0
2021-06-30T08:01:00Z,00000200,20000000,,,,,,,0000.20,0000.01,-000.30,17.5,24.3,04.3,02.8,0659.1,31.0
2021-06-30T08:02:00Z,00000200,20000000,,,,,,,-000.15,0000.01,0000.12,17.4,24.3,04.3,02.8,0659.1,31.0
2021-06-30T08:03:00Z,00000200,60000000,,,,,,,0000.35,0000.45,0000.24,17.4,24.3,04.3,02.8,0659.1,31.0
2021-06-30T08:04:00Z,00000200,40000000,0000.05,0000.17,0000.08,-000.40,0000.13,-000.52,-000.23,-000.08,-000.12,17.7,24.2,04.6,03.1,0660.1,31.0
2021-06-30T08:05:00Z,00000200,00000000,0000.42,0000.02,-000.05,-000.35,0000.07,-000.30,0000.34,0000.03,0000.07,17.8,24.2,04.6,03.1,0660.2,31.0
2021-06-30T08:06:00Z,00000200,00000000,0000.51,-000.09,0000.27,-000.25,0000.23,-000.02,-000.02,0000.19,0000.38,17.9,24.2,04.7,03.2,0660.2,31.1
2021-06-30T08:07:00Z,00000200,00000000,0000.44,-000.02,0000.14,0000.08,-000.05,0000.00,-000.06,-000.05,-000.52,17.9,24.2,04.7,03.2,0660.2,31.1
2021-06-30T08:08:00Z,00000200,00000000,0000.38,-000.10,0000.28,-000.22,0000.06,0000.09,0000.32,0000.17,0000.32,18.0,24.3,04.7,03.2,0660.2,31.1
2021-06-30T08:09:00Z,00000200,00000000,0000.31,0000.13,0000.19,-000.47,-000.18,-000.00,-000.23,-000.24,-000.11,18.0,24.3,04.7,03.2,0660.2,31.1
2021-06-30T08:10:00Z,00000200,00000000,-000.14,0000.27,0000.40,-000.14,-000.16,0000.15,0000.05,0000.14,0000.08,18.0,24.3,04.6,03.2,0660.2,31.1
2021-06-30T08:11:00Z,00000200,00000000,0000.05,0000.01,0000.22,0000.11,-000.06,0000.22,0000.09,0000.41,0000.21,17.9,24.2,04.8,03.2,0660.2,31.0
2021-06-30T08:12:00Z,00000200,00000000,0001.03,-000.01,0000.14,-000.01,0000.39,0000.12,0000.14,-000.29,0000.30,17.9,24.2,04.8,03.2,0660.2,31.0
2021-06-30T08:13:00Z,00000200,00000000,0000.24,0000.12,0000.25,-000.11,0000.18,0000.01,-000.20,-000.15,-000.56,17.8,24.2,04.9,03.3,0660.2,31.0
2021-06-30T08:14:00Z,00000200,00000000,0000.38,0000.05,0000.08,-000.32,0000.21,-000.09,0000.08,0000.08,0000.42,17.8,24.1,04.9,03.3,0660.2,31.0
2021-06-30T08:15:00Z,00000200,00000000,0000.55,0000.12,0000.09,0000.20,-000.05,-000.16,0000.18,-000.01,-000.09,17.7,24.1,04.9,03.3,0660.3,31.0
2021-06-30T08:16:00Z,00000200,00000000,0000.07,0000.03,0000.20,-000.24,-000.27,0000.01,0000.04,-000.06,0000.05,17.7,24.1,04.9,03.3,0660.2,31.0
2021-06-30T08:17:00Z,00000200,00000000,0000.21,0000.21,0000.42,0000.11,0000.11,0000.30,0000.00,0000.31,-000.09,17.8,24.1,04.9,03.3,0660.2,31.0
2021-06-30T08:18:00Z,00000200,00000000,0001.15,0000.43,-000.02,-000.16,-000.21,0000.10,0000.01,0000.04,0000.05,17.8,24.1,04.9,03.3,0660.2,31.0
2021-06-30T08:19:00Z,00000200,00000000,0000.22,-000.16,0000.29,0000.36,0000.08,0000.18,0000.11,0000.04,0000.13,17.9,24.2,04.9,03.3,0660.3,31.0
2021-06-30T08:20:00Z,00000200,00000000,0000.10,0000.03,0000.07,-000.42,-000.15,-000.31,0000.03,0000.10,-000.09,18.0,24.2,04.8,03.3,0660.3,31.1
2021-06-30T08:21:00Z,00000200,00000000,0001.33,0000.14,0000.25,-000.26,-000.34,0000.12,0000.00,-000.02,0000.16,18.1,24.3,04.8,03.3,0660.3,31.1
2021-06-30T08:22:00Z,00000200,00000000,0000.50,0000.21,0000.19,-000.49,-000.13,0000.14,0000.17,-000.28,-000.21,18.1,24.3,04.8,03.3,0660.3,31.1
2021-06-30T08:23:00Z,00000200,00000000,0000.47,0000.09,0000.15,-000.01,-000.16,0000.21,-000.07,0000.03,0000.22,18.1,24.3,04.9,03.3,0660.3,31.1
2021-06-30T08:24:00Z,00000200,00000000,0000.47,0000.19,0000.37,-000.71,-000.04,0000.14,-000.26,0000.12,-000.11,18.1,24.3,04.8,03.3,0660.3,31.1
2021-06-30T08:25:00Z,00000200,00000000,0000.67,0000.38,0000.24,-000.01,-000.19,-000.25,0000.26,0000.66,0000.27,18.1,24.3,04.8,03.3,0660.3,31.1
2021-06-30T08:26:00Z,00000200,00000000,0000.72,0000.20,0000.18,0000.18,-000.01,0000.00,-000.20,-000.74,-000.33,18.0,24.2,04.8,03.3,0660.3,31.0
2021-06-30T08:27:00Z,00000200,00000000,-000.72,-000.12,0000.30,-000.15,0000.20,-000.04,0000.37,0000.38,0000.12,17.9,24.2,04.7,03.2,0660.3,31.0
2021-06-30T08:28:00Z,00000200,00000000,0001.09,0000.17,0000.03,-000.02,0000.18,0000.01,-000.18,-000.32,-000.14,17.9,24.2,04.8,03.3,0660.4,31.0
2021-06-30T08:29:00Z,00000200,00000000,-000.51,0000.31,0000.03,-000.42,0000.32,-000.29,-000.09,0000.14,0000.09,17.9,24.2,04.8,03.3,0660.4,31.0
2021-06-30T08:30:00Z,00000200,00000000,0000.29,-000.16,0000.22,0000.08,0000.10,0000.22,-000.21,0000.02,-000.06,17.8,24.1,04.8,03.3,0660.4,31.0
2021-06-30T08:31:00Z,00000200,00000000,0000.70,-000.26,0000.24,0000.05,-000.21,0000.17,0000.21,0000.21,0000.15,17.8,24.1,04.9,03.3,0660.4,31.0
2021-06-30T08:32:00Z,00000200,00000000,0000.20,0000.05,0000.01,-000.16,0000.07,0000.34,0000.02,-000.18,0000.17,17.8,24.1,04.9,03.3,0660.4,31.0
2021-06-30T08:33:00Z,00000200,00000000,0000.41,0000.04,0000.13,0000.16,-000.17,-000.05,0000.13,0000.11,-000.23,17.9,24.1,04.8,03.3,0660.4,31.0
2021-06-30T08:34:00Z,00000200,00000000,0000.68,0000.17,0000.40,-000.03,0000.06,-000.14,0000.15,-000.10,0000.37,18.0,24.2,04.8,03.3,0660.4,31.0
2021-06-30T08:35:00Z,00000200,00000000,0000.41,0000.11,0000.26,-000.72,0000.05,-000.16,0000.00,0000.05,0000.01,18.0,24.2,04.8,03.3,0660.5,31.1
2021-06-30T08:36:00Z,00000200,00000000,0000.61,0000.08,0000.12,0000.41,-000.15,0000.01,-000.17,0000.28,0000.08,18.1,24.3,04.9,03.3,0660.5,31.1
2021-06-30T08:37:00Z,00000200,00000000,0000.36,0000.06,0000.22,-000.49,-000.08,-000.10,0000.28,0000.19,-000.21,18.1,24.3,04.8,03.3,0660.5,31.1
2021-06-30T08:38:00Z,00000200,00000000,0000.18,0000.08,0000.26,0000.37,0000.17,0000.02,-000.08,-000.14,-000.07,18.1,24.3,04.8,03.3,0660.5,31.1
2021-06-30T08:39:00Z,00000200,00000000,0000.75,0000.49,0000.27,-000.39,-000.08,-000.11,-000.23,0000.15,0000.09,18.1,24.3,04.9,03.3,0660.5,31.1
2021-06-30T08:40:00Z,00000200,00000000,0000.44,-000.01,0000.29,-000.16,0000.05,0000.05,0000.09,-000.13,-000.20,18.0,24.2,04.9,03.3,0660.5,31.1
2021-06-30T08:41:00Z,00000200,00000000,0000.46,0000.17,0000.28,0000.06,0000.01,0000.03,0000.19,-000.35,0000.33,18.0,24.2,04.9,03.4,0660.5,31.0
2021-06-30T08:42:00Z,00000200,00000000,0000.16,-000.03,0000.51,-000.45,0000.10,-000.06,0000.17,0000.55,-000.20,17.9,24.2,04.9,03.3,0660.5,31.0
2021-06-30T08:43:00Z,00000200,00000000,0000.17,0000.33,0000.32,-000.35,0000.12,0000.17,-000.19,-000.27,0000.01,17.9,24.2,05.0,03.4,0660.5,31.0
2021-06-30T08:44:00Z,00000200,00000000,0000.32,0000.32,0000.16,0000.15,0000.02,-000.03,0000.28,0000.25,0000.16,17.8,24.2,05.0,03.4,0660.5,31.0
2021-06-30T08:45:00Z,00000200,00000000,0000.76,0000.21,0000.15,0000.04,-000.02,-000.20,-000.03,0000.08,0000.05,17.8,24.1,05.0,03.4,0660.6,31.0
2021-06-30T08:46:00Z,00000200,00000000,0000.67,0000.25,0000.29,-000.49,-000.33,0000.13,0000.17,-000.06,0000.19,17.8,24.1,05.1,03.5,0660.5,31.0
2021-06-30T08:47:00Z,00000200,00000000,0000.15,0000.15,-000.10,-000.01,0000.10,-000.39,0000.35,0000.11,0000.12,17.8,24.1,05.2,03.6,0660.6,31.0
2021-06-30T08:48:00Z,00000200,00000000,0001.04,0000.37,0000.39,0000.15,-000.09,0000.16,-000.01,0000.16,0000.05,17.9,24.1,05.2,03.5,0660.6,31.0
2021-06-30T08:49:00Z,00000200,00000000,0000.44,0000.05,0000.41,-000.10,-000.07,-000.07,0000.08,0000.10,-000.27,17.9,24.2,05.3,03.6,0660.6,31.1
2021-06-30T08:50:00Z,00000200,00000000,0000.43,-000.06,0000.21,-000.90,-000.13,0000.09,0000.18,-000.31,0000.23,18.0,24.2,05.3,03.6,0660.6,31.0
2021-06-30T08:51:00Z,00000200,00000000,0000.35,0000.20,0000.31,0000.12,0000.05,0000.02,-000.04,0000.25,0000.11,18.0,24.2,05.3,03.6,0660.6,31.1
2021-06-30T08:52:00Z,00000200,00000000,0000.63,0000.34,0000.40,0000.30,-000.15,-000.15,-000.21,0000.09,-000.15,18.0,24.3,05.4,03.7,0660.6,31.1
2021-06-30T08:53:00Z,00000200,00000000,0000.45,0000.32,0000.48,-000.48,0000.19,0000.13,0000.28,0000.27,0000.18,18.0,24.2,05.4,03.7,0660.6,31.1
2021-06-30T08:54:00Z,00000200,00000000,0000.41,0000.00,-000.11,-000.41,0000.10,-000.08,0000.10,-000.14,-000.09,18.0,24.2,05.6,03.8,0660.6,31.0
2021-06-30T08:55:00Z,00000200,00000000,0001.02,0000.24,0000.46,-000.62,0000.16,0000.60,0000.19,0000.18,0000.33,17.9,24.2,05.6,03.8,0660.6,31.0
2021-06-30T08:56:00Z,00000200,00000000,0000.47,0000.31,0000.56,0000.26,0000.11,-000.12,0000.18,0000.21,0000.25,17.9,24.2,05.7,03.9,0660.6,31.0
2021-06-30T08:57:00Z,00000200,40000000,,,,,,,-000.16,-000.35,-000.58,18.0,24.2,06.0,04.1,0660.6,31.0
2021-06-30T08:58:00Z,00000200,60000000,,,,,,,-000.02,0000.51,0000.29,17.7,24.3,05.3,03.5,0659.6,31.0
2021-06-30T08:59:00Z,00000200,20000000,,,,,,,0000.24,-000.38,0000.11,17.6,24.4,05.3,03.5,0659.6,31.0
